COSMOS 516

Satellite information

Favourite Embed

Satellite Type and Status

PAYLOADIN ORBIT

Key statistics

Satellite COSMOS 516 at a glance.

Uptime

19373

Days in orbit

Revolutions

≈ 13.8

Per day

Orbit

LEO

Low Earth Orbit

Inclination

64.8

Latest

Satellite identification and parameters

Extended collection of information and parameters for COSMOS 516.

Object identification

Identified? True

Debris? False

Object name: COSMOS 516

International designator: 1972-066A

Object number (NORAD): 6154

Object ID (CCSDS): 6154

Country: COMMONWEALTH OF INDEPENDENT STATES (CIS)

Current information (Y/N): Y

RCS size: LARGE

Orbital parameters

Period: 104.515 minutes

Inclination: 64.8094 deg

SMA: 7349.855 km

Apoapsis: 1025.539 km

Periapsis: 917.902 km

RAAN: 208.3001 deg

Eccentricy: 0.00732235

Argument of periapsis: 192.2227 deg

Mean anomaly: 167.7055 deg

Mean motion: 13.7779487 rev/day

Mean motion (dot): -0.00000063 rev/day2

B* drag term: 0.000024638509 1/REarth

Two-line elements (TLE)

Creation date: Sept. 4, 2025, 10:13 a.m.

Reference frame: TEME

Reference center: EARTH

Epoch: Sept. 4, 2025, 5:22 a.m. UTC

TLE line 0: 0 COSMOS 516

TLE line 1: 1 06154U 72066A 25247.22372629 -.00000063 00000-0 24639-4 0 9998

TLE line 2: 2 06154 64.8094 208.3001 0073223 192.2227 167.7055 13.77794870668526

Live tracking on map

Real-time ground track for satellite COSMOS 516.

In-orbit conjunctions

A list of the most updated potential collisions computed for object COSMOS 516.

Target Orbit TCA Probability of collision Miss distance Type
COSMOS 1275 DEB LEO 2025-09-06 21:36:23 0.000196904 400.0 (m) DEBRIS
FENGYUN 1C DEB SSO 2024-10-20 19:03:56 0.0006898954 172.0 (m) DEBRIS
FENGYUN 1C DEB SSO 2024-10-04 14:35:23 0.0001553324 612.0 (m) DEBRIS

Associated space launch

Active radar satellite for ocean surveillance powered by a nuclear reactor.

COSMOS 516 was lifted into orbit during the mission ‘Tsiklon-2 | US-A 4’, on board a Tsiklon-2 space rocket.

The launch took place on Aug. 21, 1972, 10:36 a.m. from 90/19.

For more information about the launch, click the button.

Launch to space Tsiklon-2 | US-A 4
Tsiklon-2 | US-A 4

Agency: N/A

Status: Launch Successful

Launch date: Aug. 21, 1972, 10:36 a.m. UTC

Rocket: Tsiklon-2

Launch pad: 90/19

Location: Baikonur Cosmodrome, Republic of Kazakhstan

...

Latest news about this satellite

There are no fresh news available about this satellite. Check back as we update our databases every day.


Newsletter sign-up

Weekly statistics, charts and insights to help you stay on top of the space industry.